Flag for Finland Weather past 2 weeks in Turku, Finland

Now
41 °F

Partly sunny.


Feels Like: 36 °F
Forecast: 35 / 43 °F
Wind: 8 mph from East

Location: Turku Airport

Current Time: Apr 1, 2015 at 2:17:58 PM

Latest Report: Apr 1, 2015 at 1:50 PM


Visibility: N/A

Pressure: 29.30 "Hg

Humidity: 76%

Dew point: 34 °F

Location of TurkuLocation

Historic Weather in Turku — Graph

°F

Turku temperature yesterday

Maximum temperature yesterday: 39 °F (at 6:50 PM)
Minimum temperature yesterday: 34 °F (at 12:20 AM)
Average temperature yesterday: 36 °F

Past Weeks' High & Low Weather Summary

 TemperatureHumidityPressure
High54 °F (Mar 18, 1:50 PM)100% (Mar 23, 2:20 PM)30.89 "Hg (Mar 23, 2:20 PM)
Low10 °F (Mar 22, 4:20 AM)18% (Mar 21, 3:20 PM)28.80 "Hg (Mar 31, 5:50 AM)
Average35 °F73%29.85 "Hg
* Reported Mar 17 12:20 PM — Apr 1 1:20 PM, Turku, Weather by CustomWeather, © 2015

Note: Actual official high and low records may vary slightly from our data, if they occured in-between our weather recording intervals... More about our weather records

Advertising

Turku weather history for previous 24 hours

 ConditionsComfort  
Time TempWeatherWind HumidityBarometerVisibility
1:20 PM
Wed, Apr 1
39 °FPartly sunny.9 mph81%29.27 "HgN/A
12:50 PM39 °FBroken clouds.8 mph81%29.27 "HgN/A
12:20 PM39 °FScattered clouds.9 mph81%29.27 "HgN/A
11:50 AM39 °FPassing clouds.8 mph87%29.27 "HgN/A
11:20 AM39 °FScattered clouds.6 mph93%29.27 "HgN/A
10:50 AM37 °FScattered clouds.3 mph100%29.27 "HgN/A
10:20 AM34 °FLow clouds.5 mph100%29.27 "HgN/A
9:50 AM34 °FPartly sunny.6 mph93%29.24 "HgN/A
9:20 AM34 °FPartly sunny.2 mph93%29.24 "HgN/A
8:50 AM32 °FPartly sunny.5 mph100%29.24 "HgN/A
8:20 AM32 °FLow clouds.6 mph100%29.24 "Hg4 mi
7:50 AM32 °FIce fog.5 mph100%29.24 "Hg2 mi
7:20 AM34 °FFog.3 mph93%29.24 "Hg1 mi
6:50 AM34 °FFog.2 mph93%29.24 "Hg1 mi
6:20 AM32 °FFog.2 mph100%29.21 "Hg1 mi
5:50 AM32 °FIce fog.5 mph100%29.21 "Hg1 mi
5:20 AM34 °FFog.5 mph93%29.21 "Hg1 mi
4:50 AM34 °FFog.5 mph93%29.21 "Hg1 mi
4:20 AM34 °FFog.3 mph93%29.21 "Hg1 mi
3:50 AM34 °FFog.5 mph93%29.18 "Hg1 mi
3:20 AM32 °FPassing clouds.5 mph100%29.18 "HgN/A
2:50 AM34 °FPassing clouds.3 mph93%29.18 "HgN/A
2:20 AM34 °FPassing clouds.3 mph93%29.18 "HgN/A
1:50 AM36 °FPassing clouds.3 mph93%29.18 "HgN/A
1:20 AM36 °FPassing clouds.3 mph93%29.18 "HgN/A
12:50 AM36 °FPassing clouds.5 mph93%29.15 "HgN/A
12:20 AM36 °FPassing clouds.2 mph93%29.15 "HgN/A
11:50 PM
Tue, Mar 31
36 °FPartly cloudy.3 mph93%29.15 "HgN/A
11:20 PM36 °FMostly cloudy.3 mph93%29.15 "HgN/A
10:50 PM36 °FLow clouds.5 mph93%29.15 "HgN/A
10:20 PM36 °FPassing clouds.5 mph93%29.15 "HgN/A
9:50 PM34 °FPassing clouds.3 mph93%29.12 "HgN/A
9:20 PM34 °FPassing clouds.3 mph93%29.12 "HgN/A
8:50 PM34 °FPassing clouds.2 mph93%29.12 "HgN/A
8:20 PM36 °FPassing clouds.3 mph87%29.09 "HgN/A
7:50 PM36 °FPassing clouds.5 mph87%29.09 "HgN/A
7:20 PM37 °FPassing clouds.6 mph81%29.06 "HgN/A
6:50 PM39 °FScattered clouds.6 mph70%29.06 "HgN/A
6:20 PM37 °FPartly sunny.6 mph87%29.06 "HgN/A
5:50 PM37 °FLight rain. Overcast.7 mph87%29.03 "HgN/A
5:20 PM37 °FLight rain. Partly sunny.8 mph87%29.03 "HgN/A
4:50 PM37 °FLight rain. Mostly cloudy.7 mph87%29.03 "HgN/A
4:20 PM37 °FMostly cloudy.9 mph81%29.03 "HgN/A
3:50 PM37 °FBroken clouds.9 mph81%29.00 "HgN/A
3:20 PM37 °FLight rain. Partly sunny.9 mph87%29.00 "HgN/A
2:50 PM36 °FLight rain. Broken clouds.8 mph93%29.00 "HgN/A
2:20 PM36 °FMostly cloudy.12 mph93%28.97 "HgN/A
Weather by CustomWeather, © 2015

See weather overviewHow to use our weather pages